Regional Weather Roundup
Issued by NWS

Home | Current Version | Previous Version | Graphics & Text | Print | Product List | Glossary On
Versions: 1 2 3 4 5 6 7 8 9 10 11 12 13 14 15 16 17 18 19 20 21 22 23 24 25 26 27 28 29 30 31 32 33 34 35 36 37 38 39 40 41 42 43 44 45 46 47 48 49 50
000
ASUS43 KOAX 101602
RWRNE

WEATHER ROUNDUP FOR NEBRASKA
NATIONAL WEATHER SERVICE OMAHA NE
1000 AM CST SUN DEC 10 2017

NOTES: SATELLITE DATA IS BEING USED TO AUGMENT CLOUD COVER ABOVE
       12000 FEET.
       "FAIR" INDICATES FEW OR NO CLOUDS BELOW 12,000 FEET WITH NO
       SIGNIFICANT WEATHER AND/OR OBSTRUCTIONS TO VISIBILITY.


NEZ001>004-019>022-054>056-101700-
NEBRASKA PANHANDLE

CITY           SKY/WX    TMP DP  RH WIND       PRES   REMARKS
SCOTTSBLUFF    SUNNY     35  12  38 NW8       30.37R WCI  29
ALLIANCE       SUNNY     41  12  30 W15       30.30S
CHADRON        SUNNY     47  10  22 SW7       30.31R
GORDON         FAIR      43  15  32 W17       30.25F
KIMBALL        SUNNY     41   6  23 NW14G20   30.38S
SIDNEY         SUNNY     45   7  21 W16       30.35R
$$

NEZ057>060-069>072-079>082-101700-
SOUTHWEST NEBRASKA

CITY           SKY/WX    TMP DP  RH WIND       PRES   REMARKS
NORTH PLATTE   SUNNY     41  16  36 W14       30.26S
IMPERIAL       SUNNY     45   9  23 NW16G24   30.32S
LEXINGTON      SUNNY     44  14  29 W16       30.24R
MCCOOK         SUNNY     42  13  30 W14       30.30R
OGALLALA       SUNNY     42  14  32 W14       30.32R
$$

NEZ005>010-023>029-035>040-094-101700-
NORTH CENTRAL NEBRASKA

CITY           SKY/WX    TMP DP  RH WIND       PRES   REMARKS
VALENTINE      SUNNY     44  18  35 W7        30.19S
AINSWORTH      SUNNY     47  17  30 W18G24    30.17S
BROKEN BOW     SUNNY     52  13  21 NW20G29   30.19R
O`NEILL        SUNNY     45  20  36 W9        30.15R
ORD            SUNNY     49  14  24 NW15      30.16R
THEDFORD       SUNNY     46  16  31 W15G22    30.22S
$$

NEZ041-046>049-061>064-073>077-083>087-101700-
SOUTH CENTRAL NEBRASKA

CITY           SKY/WX    TMP DP  RH WIND       PRES   REMARKS
GRAND ISLAND   SUNNY     50  16  25 NW22      30.17S
AURORA         SUNNY     48  18  29 NW20      30.16S
HASTINGS       SUNNY     47  14  26 NW18      30.18R
HEBRON         SUNNY     50  17  27 NW14G20   30.17S
HOLDREGE       SUNNY     47  19  33 W8        30.22S
KEARNEY        SUNNY     47  14  26 NW16      30.20R
$$

NEZ011>018-030>034-042>045-101700-
NORTHEAST NEBRASKA

CITY           SKY/WX    TMP DP  RH WIND       PRES   REMARKS
NORFOLK        SUNNY     47  22  37 NW21G26   30.09R
ALBION         SUNNY     47  19  32 NW13G20   30.14R
BLAIR          SUNNY     41  28  57 NW12      30.09R
COLUMBUS       SUNNY     47  22  37 NW16      30.14R
FREMONT        SUNNY     45  24  44 NW16      30.11S
TEKAMAH        SUNNY     43  26  51 NW14      30.10R
WAYNE          SUNNY     43  22  44 NW14G20   30.10R
$$

NEZ050>053-065>068-078-088>093-101700-
SOUTHEAST NEBRASKA

CITY           SKY/WX    TMP DP  RH WIND       PRES   REMARKS
LINCOLN        SUNNY     45  21  38 NW15      30.14R
OMAHA EPPLEY   MOSUNNY   44  26  49 N20       30.10R
BEATRICE       SUNNY     47  23  38 NW16      30.15R
FALLS CITY     CLOUDY    46  23  40 NW15      30.12R
NEBRASKA CITY  SUNNY     44  26  48 NW14G23   30.11R
PLATTSMOUTH    SUNNY     42  26  53 NW14      30.10S
$$

NEZ044-045-051>053-067-101700-
OMAHA AREA

CITY           SKY/WX    TMP DP  RH WIND       PRES   REMARKS
OMAHA EPPLEY   MOSUNNY   44  26  49 N20       30.10R
BLAIR          SUNNY     41  28  57 NW12      30.09R
FREMONT        SUNNY     45  24  44 NW16      30.11S
MILLARD        SUNNY     44  26  48 NW10      30.11R
OFFUTT AFB     SUNNY     43  26  51 NW14      30.10R
PLATTSMOUTH    SUNNY     42  26  53 NW14      30.10S
WAHOO          FAIR      46  21  37 NW16      30.10F
$$




USA.gov is the U.S. government's official web portal to all federal, state and local government web resources and services.